Regional Weather Roundup
Issued by NWS

Home | Current Version | Previous Version | Graphics & Text | Print | Product List | Glossary On
Versions: 1 2 3 4 5 6 7 8 9 10 11 12 13 14 15 16 17 18 19 20 21 22 23 24 25 26 27 28 29 30 31 32 33 34 35 36 37 38 39 40 41 42 43 44 45 46 47 48 49 50
246
ASUS44 KLIX 291010
RWRLA
LOUISIANA WEATHER ROUNDUP
NATIONAL WEATHER SERVICE NEW ORLEANS LA
500 AM CDT FRI AUG 29 2014

NOTE: "FAIR" INDICATES FEW OR NO CLOUDS BELOW 12,000 FEET WITH NO
      SIGNIFICANT WEATHER AND/OR OBSTRUCTIONS TO VISIBILITY.
      SKY/WX - SKY CONDITION AND SIGNIFICANT WEATHER.
      TMP - AIR TEMPERATURE.    DP   - DEWPOINT TEMPERATURE.
      RH  - RELATIVE HUMIDITY.  PRES - PRESSURE.
      HX  - HEAT INDEX.         WCI  - WIND CHILL INDEX.

*  THESE STATIONS ARE NOT NWS OR FAA STATIONS AND ARE NOT UNDER
   NWS QUALITY CONTROL.

LAZ040-048-061>063-065-066-069-291100-
SOUTHEAST LOUISIANA

CITY           SKY/WX    TMP DP  RH WIND       PRES   REMARKS
N.O. AUDUBON     N/A     82  75  81 MISG        N/A
N.O. INTL ARPT PTCLDY    79  73  82 E5        29.93S
N.O. LAKEFRONT PTCLDY    81  75  82 E7        29.94S
N.O. DOWNTOWN* FAIR      82  70  65 E5        29.94S
SLIDELL        PTCLDY    72  69  90 CALM      29.94S
BATON ROUGE    PTCLDY    74  72  93 E3        29.93S
BOOTHVILLE     PTCLDY    82  78  88 E3        29.93F
BELLE CHASSE   PTCLDY    76  72  87 NE3       29.93S
BOGALUSA*        N/A     73  70  89 CALM      29.97S
GALLIANO*      NOT AVBL
NEW ROADS*     FAIR      74  74  97 NE3       29.93S
GONZALES*      FAIR      73  73 100 CALM      29.93R
HAMMOND*       CLEAR     75  72  88 CALM      29.96R
HOUMA*         PTCLDY    76  72  87 NE3       29.92S
PORT FOURCHON* PTSUNNY   84  77  79 SE15      29.93R

$$

LAZ041-044-053-054-291100-
SOUTHWEST LOUISIANA

CITY           SKY/WX    TMP DP  RH WIND       PRES   REMARKS
LAKE CHARLES   PTCLDY    76  74  93 E6        29.90R
LAFAYETTE      PTCLDY    76  74  93 E3        29.92S
PATTERSON        N/A     75  73  94 E5        29.94S
SALT POINT       N/A     79  75  87 CALM      29.90S
NEW IBERIA     CLEAR     77  74  90 E7        29.92S
CHENAULT AIRPK NOT AVBL

$$

LAZ027-028-291100-
CENTRAL LOUISIANA

CITY           SKY/WX    TMP DP  RH WIND       PRES   REMARKS
FORT POLK      PTCLDY    75  73  93 CALM      29.93S
ALEXANDRIA INT PTCLDY    75  72  90 CALM      29.92S
ALEXANDRIA     CLEAR     73  71  93 CALM      29.93S

$$

LAZ001-002-291100-
NORTHWEST LOUISIANA

CITY           SKY/WX    TMP DP  RH WIND       PRES   REMARKS
SHREVEPORT     CLOUDY    78  72  81 CALM      29.92S
BARKSDALE AFB  CLOUDY    78  71  79 SE3       29.93R
DTN SHREVEPORT MOCLDY    78  73  84 CALM      29.93R

$$

LAZ014-016-291100-
NORTHEAST LOUISIANA

CITY           SKY/WX    TMP DP  RH WIND       PRES   REMARKS
MONROE         CLEAR     72  70  93 CALM      29.94F FOG
TALLULAH       CLEAR     72  70  93 S3        29.95S

$$




USA.gov is the U.S. government's official web portal to all federal, state and local government web resources and services.